Location: Arthurs Seat
(13.1500°N, 59.6000°W)
Time: 23:27:10
(UTC+00:00)

Cosmos 1833 Rocket - Pass Details

Date: 25 August 2019
Orbit: 834 x 839 km, 71.0° (Epoch: 17 September)

Event Time Altitude Azimuth Distance (km) Brightness Sun altitude
Rises 22:31:36 0° 161° (SSE) 3,378 5.5 -5.0°
Reaches altitude 10° 22:34:54 10° 142° (SE) 2,445 4.7 -5.8°
Maximum altitude 22:38:24 17° 102° (ESE) 1,995 4.0 -6.7°
Drops below altitude 10° 22:41:54 10° 63° (ENE) 2,446 4.7 -7.5°
Sets 22:45:11 0° 44° (NE) 3,380 5.5 -8.3°
